User: anonymous   Login
Location: Mentone
(34.5413°N, 85.5351°W)
Time: 02:45:31
(UTC-06:00)
Language:

Cosmos 2026 Rocket - Orbit

View from above orbital plane
View from above orbital plane
View from above satellite
View from above satellite

Ground track
Ground track

The orbit data is extracted from the following two-line orbital elements,

1 20046U 89042B   16043.21833295  .00000088  00000-0  72337-4 0  9994
2 20046  82.9399 309.0665 0042383   7.1104 146.8451 13.78047408341634
Epoch (UTC): 12 February 2016 05:14:23
Eccentricity: 0.0042383
inclination: 82.9399°
perigee height: 939 km
apogee height: 1002 km
right ascension of ascending node: 309.0665°
argument of perigee: 7.1104°
revolutions per day: 13.78047408
mean anomaly at epoch: 146.8451°
orbit number at epoch: 34163

The dashed part of the orbit path shows where the satellite is in the earth's shadow,  

DLR